{"data":{"norad_id":48325,"intl_designator":"2021-036BB","name":"STARLINK-2495","alt_names":[],"object_type":"PAYLOAD","status":"ACTIVE","operator":null,"country":"US","launch_date":"2021-04-29","launch_site_code":"AFETR","launch_vehicle":null,"mission":null,"orbit_class":"UNKNOWN","rcs_meters":null,"size_class":null,"mass_kg":null,"dimensions":null,"purposes":["comms"],"wikipedia_slug":null,"has_3d_model":false,"image_url":null,"decayed_at":null,"tle_current":{"epoch":"2026-05-25T03:49:12.103968Z","epoch_age_seconds":57470,"freshness":"FRESH","line1":"1 48325U 21036BB  26145.15916787  .00000518  00000+0  28450-4 0  9992","line2":"2 48325  53.1607 105.5112 0001346  85.3694 274.7461 15.31704242279750","mean_motion":15.31704242,"eccentricity":0.0001346,"inclination_deg":53.1607,"raan_deg":105.5112,"arg_perigee_deg":85.3694,"mean_anomaly_deg":274.7461,"bstar":2.845e-5,"rev_number":27975,"period_min":94.012927594934,"perigee_km":469.80549293205,"apogee_km":471.64920721509,"semimajor_km":6848.8643500736,"source":"CELESTRAK","updated_at":"2026-05-25T13:38:16.681984Z"}}}